Zurück zum Katalog

COSMOS 2063

AktivMilitärHEO
NORAD 20536·PAYLOAD·🇷🇺 Russia

Gestartet Mar 27, 1990 von Plesetsk Cosmodrome

Loading…

Nächste Überflüge (nächste 24 Stunden)

TLE

AktuellSource: Space-Track

Epoche: Sep 7, 2026, 20:18 UTC

1 20536U 90026A   26250.84625990  .00000580  00000-0  00000-0 0  9994
2 20536  66.6498 166.0945 5386338 129.6603 291.8351  1.99607013265706

Verfolge COSMOS 2063 in Echtzeit mit AllMySat

Download on the App Store